SUCHAI 1
1 42788U 17036Z 21084.31890967 .00003281 00000-0 13470-3 0 9996
2 42788 97.2631 136.9575 0012767 111.7446 248.5152 15.24834735208663
SKCUBE
1 42789U 17036AA 21084.13739467 .00003065 00000-0 12691-3 0 9998
2 42789 97.2623 136.5326 0012670 112.7630 247.4949 15.24599210208549
VZLUSAT 1
1 42790U 17036AB 21084.18270791 .00004028 00000-0 15982-3 0 9991
2 42790 97.2657 138.0699 0012106 109.3144 250.9405 15.25852744208635
VENTA 1
1 42791U 17036AC 21084.18174093 .00003001 00000-0 12444-3 0 9990
2 42791 97.2621 136.5984 0012349 112.9865 247.2677 15.24563322208546
Robusta 1B
1 42792U 17036AD 21084.18467315 .00003130 00000-0 12866-3 0 9994
2 42792 97.2627 136.9255 0012249 112.6317 247.6218 15.24827773208588
D-SAT
1 42794U 17036AF 21084.29917045 .00000572 00000-0 54222-4 0 9998
2 42794 97.4690 108.6328 0126645 146.5881 214.3412 14.91489168204518
TechnoSat
1 42829U 17042E 21084.51371254 .00000389 00000-0 44252-4 0 9993
2 42829 97.4823 318.4489 0015696 69.6484 290.6420 14.91241849201178
QIKCOM-1
1 42983U 98067NF 21084.67531529 .00011929 00000-0 12276-3 0 9992
2 42983 51.6380 324.6001 0003395 46.3468 313.7808 15.65337660194273
AO-91
1 43017U 17073E 21084.19812505 .00000835 00000-0 70155-4 0 9997
2 43017 97.7130 351.5114 0254525 214.9838 143.4424 14.79399525180669
EcAMSat
1 43019U 98067NG 21084.16056933 .00028267 00000-0 19073-3 0 9993
2 43019 51.6400 299.4898 0002323 39.0125 321.1042 15.74860638276886
PICSAT
1 43132U 18004X 21084.17390760 .00002960 00000-0 11959-3 0 9999
2 43132 97.4152 159.4723 0010376 138.5280 221.6747 15.25503814177837
AO-92
1 43137U 18004AC 21084.48238879 .00002571 00000-0 10594-3 0 9992
2 43137 97.4132 159.3640 0010019 139.6200 220.5783 15.24961349177866
TianYi 2
1 43155U 18008A 21084.57216196 .00001614 00000-0 96847-4 0 9997
2 43155 97.4109 152.0367 0015638 257.1214 239.1925 15.12228892175395
Zhou Enlai
1 43156U 18008B 21084.61111008 .00001598 00000-0 97104-4 0 9997
2 43156 97.4153 151.9095 0012885 255.7906 208.4721 15.11816649175344
TianYi 6
1 43158U 18008D 21084.24585436 .00001891 00000-0 11593-3 0 9991
2 43158 97.4100 150.2473 0012141 256.4856 144.4586 15.11276920175224
S-Net D
1 43186U 18014G 21084.33807717 .00000444 00000-0 43543-4 0 9992
2 43186 97.6820 353.4167 0011113 10.8477 349.2982 14.96997981171716
S-Net B
1 43187U 18014H 21084.20428390 .00000433 00000-0 42641-4 0 9991
2 43187 97.6818 353.2549 0011129 11.1173 349.0293 14.96997432171691
S-Net A
1 43188U 18014J 21084.67215993 .00000473 00000-0 46093-4 0 9995
2 43188 97.6821 353.7555 0011076 9.7694 350.3741 14.96996674171768
S-Net C
1 43189U 18014K 21084.33843333 .00000456 00000-0 44609-4 0 9996
2 43189 97.6817 353.3799 0011095 10.8152 349.3307 14.96996408170268
FMN 1
1 43192U 18015A 21084.63352176 .00006344 00000-0 23849-3 0 9998
2 43192 97.4732 219.6935 0015165 173.0468 244.6953 15.27410735174791
Shaonian Xing
1 43199U 18015H 21084.62516251 .00004419 00000-0 16861-3 0 9997
2 43199 97.4516 217.1412 0016125 182.9127 188.1936 15.27077719174850
SurfSat
1 43614U 18070B 21084.49155956 .00006412 00000-0 15369-3 0 9993
2 43614 93.0230 271.0921 0013213 339.7577 20.3153 15.41341317141730
CP-7 DAVE
1 43615U 18070C 21084.16920782 .00006033 00000-0 14587-3 0 9995
2 43615 93.0234 270.9248 0013434 340.8719 19.2030 15.41075617141672
ELFIN-B
1 43616U 18070D 21084.46776720 .00010586 00000-0 23582-3 0 9993
2 43616 93.0189 271.1478 0013254 338.1566 21.9123 15.43506941141810
ELFIN-A
1 43617U 18070E 21084.45085184 .00010426 00000-0 22928-3 0 9996
2 43617 93.0242 271.9078 0012531 334.9762 25.0885 15.43901743141824
STARS-Me Mother
1 43640U 98067PQ 21083.69173952 .00088014 00000-0 39841-3 0 9992
2 43640 51.6301 313.8466 0000230 354.8461 5.2540 15.83207730140807
CubeBel 1
1 43666U 18083E 21084.60366271 .00002626 00000-0 12815-3 0 9997
2 43666 97.4651 114.0055 0016481 100.6238 23.9421 15.19064744133284
Changshagaoxin
1 43669U 18083H 21084.59192939 .00001961 00000-0 99874-4 0 9998
2 43669 97.4549 111.3242 0012574 95.4851 21.5758 15.17903880133167
Ten-Koh
1 43677U 18084G 21084.33499677 .00000341 00000-0 40841-4 0 9990
2 43677 97.9069 207.2237 0014922 315.7935 44.2090 14.90423745130779
PO-101
1 43678U 18084H 21084.60718326 -.00000077 00000-0 -19362-5 0 9999
2 43678 97.9085 209.5196 0009394 337.0759 23.0019 14.91721444130937
IRVINE 01
1 43693U 18088D 21084.51140229 .00006293 00000-0 25108-3 0 9998
2 43693 85.0315 250.7070 0015947 342.0614 18.0065 15.24845366131645
QO-100
1 43700U 18090A 21084.08183281 .00000139 00000-0 00000-0 0 9991
2 43700 0.0109 233.5043 0002433 161.4259 203.0988 1.00273305 8522
Reaktor Hello World
1 43743U 18096AA 21084.66041221 .00003245 00000-0 11956-3 0 9991
2 43743 97.3911 162.8139 0016599 208.4639 151.5696 15.28432029129332
MinXSS-2
1 43758U 18099A 21084.42736965 .00000802 00000-0 76574-4 0 9994
2 43758 97.6741 157.3405 0014666 335.5829 24.4696 14.95961109125954
AO-95
1 43770U 18099N 21084.19961058 .00000863 00000-0 83513-4 0 9993
2 43770 97.6722 156.2225 0013866 345.1443 14.9369 14.95237545125866
RANGE-B
1 43772U 18099Q 21084.44502146 .00000407 00000-0 41886-4 0 9993
2 43772 97.6804 157.3316 0013260 330.8036 29.2443 14.95515619125907
RANGE-A
1 43773U 18099R 21084.46724729 .00000777 00000-0 75860-4 0 9998
2 43773 97.6660 155.8892 0012564 331.2187 28.8339 14.95152737125893
MOVE-II
1 43780U 18099Y 21084.19379264 .00001047 00000-0 98856-4 0 9997
2 43780 97.6734 156.6587 0012678 342.0525 18.0247 14.95790922125876
SNUSat 2
1 43782U 18099AA 21084.44680876 .00000230 00000-0 25927-4 0 9993
2 43782 97.6719 156.7763 0011873 330.4458 29.6090 14.95485846125915
SnugLite
1 43784U 18099AC 21084.19442157 .00000700 00000-0 68115-4 0 9993
2 43784 97.6683 156.2780 0014263 338.4052 21.6566 14.95602545125899
ITASat 1
1 43786U 18099AE 21084.20257506 .00000806 00000-0 77742-4 0 9992
2 43786 97.6741 156.8448 0014341 337.7943 22.2655 14.95543087125892
EAGLET 1
1 43790U 18099AJ 21084.45792837 .00000274 00000-0 29577-4 0 9997
2 43790 97.6727 157.4728 0012836 341.4979 18.5774 14.95913007125654
ESEO
1 43792U 18099AL 21084.43054094 .00000080 00000-0 12328-4 0 9994
2 43792 97.6701 157.1017 0012681 339.5719 20.4993 14.95707967125701
CSIM
1 43793U 18099AM 21084.43347966 .00000764 00000-0 72320-4 0 9995
2 43793 97.6725 157.3605 0012006 335.5875 24.4776 14.96451649125700
Astrocast 0.1
1 43798U 18099AS 21084.15105824 .00001123 00000-0 10491-3 0 9994
2 43798 97.6737 157.3378 0011138 322.0106 38.0329 14.96078627125917
JO-97
1 43803U 18099AX 21084.44741359 .00000295 00000-0 31570-4 0 9993
2 43803 97.6700 156.8474 0014401 336.7748 23.2821 14.95772353125936
Suomi 100
1 43804U 18099AY 21084.45139509 .00000360 00000-0 37384-4 0 9995
2 43804 97.6697 156.8243 0014435 336.8120 23.2448 14.95747094125948
Al Farabi 2
1 43805U 18099AZ 21084.59792289 .00000401 00000-0 40889-4 0 9991
2 43805 97.6719 157.1492 0014637 336.1751 23.8800 14.95937469125979
CHOMPTT
1 43855U 18104G 21084.26884326 .00002509 00000-0 10227-3 0 9994
2 43855 85.0409 349.3054 0019604 95.9698 264.3780 15.23729859126276
